Regional Weather Roundup
Issued by NWS Newport/Morehead, NC

Current Version | Previous Version | Text Only | Print | Product List | Glossary On
Versions: 1 2 3 4 5 6 7 8 9 10 11 12 13 14 15 16 17 18 19 20 21 22 23 24 25 26 27 28 29 30 31 32 33 34 35 36 37 38 39 40 41 42 43 44 45 46 47 48 49 50
000
ASUS42 KMHX 270725
RWRMHX
WEATHER ROUNDUP FOR EASTERN NORTH CAROLINA
NATIONAL WEATHER SERVICE NEWPORT/MOREHEAD CITY NC
300 AM EDT SAT MAY 27 2017

NOTE: "FAIR" INDICATES FEW OR NO CLOUDS BELOW 12,000 FEET
WITH NO SIGNIFICANT WEATHER AND/OR OBSTRUCTIONS TO VISIBILITY

NCZ015>017-031-032-045>047-102-103-270800-
NORTH COAST

CITY           SKY/WX    TMP DP  RH WIND       PRES   REMARKS
EDENTON        CLEAR     69  64  82 CALM      29.93F
ELIZABETH CITY CLEAR     64  61  90 SW6       29.92F
KITTY HAWK     SUNNY     68  61  77 CALM      29.92F
MANTEO         CLEAR     69  62  78 CALM      29.93F

$$

NCZ045>047-081-094-103-104-270800-
CENTRAL COAST

CITY           SKY/WX    TMP DP  RH WIND       PRES   REMARKS
FRISCO         CLEAR     72  68  87 W6        29.95S

$$

NCZ095-097-098-100-101-270800-
SOUTHERN COAST

CITY           SKY/WX    TMP DP  RH WIND       PRES   REMARKS
BEAUFORT       CLEAR     72  70  93 SW5       29.96F
CEDAR ISLAND   NOT AVBL
JACKSONVILLE   PTCLDY    65  63  93 W6        29.97R
PINEY ISLAND   SUNNY    N/A N/A N/A S6        29.95F
WILMINGTON     CLEAR     67  61  81 SW3       29.98S


$$

NCZ011>013-027>030-043-044-078>080-089-090>093-098-270800-
COASTAL PLAIN

CITY           SKY/WX    TMP DP  RH WIND       PRES   REMARKS
AHOSKIE        NOT AVBL
CLINTON        CLEAR     63  59  88 CALM      29.97F
ELIZABETHTOWN  PTCLDY    63  59  85 CALM      29.97F
GOLDSBORO      NOT AVBL
GREENVILLE     CLEAR     63  59  88 SW3       29.96F
HAVELOCK       CLEAR     64  60  87 S5        29.97S
KENANSVILLE    PTCLDY    59  57  94 CALM      29.96F
KINSTON        CLEAR     61  59  94 CALM      29.96F
NEW BERN       CLEAR     62  59  90 CALM      29.97S
RICHLANDS      CLEAR     60  58  92 S5        29.97F
ROCKY MOUNT    CLEAR     62  60  93 S5        29.94F
WASHINGTON     PTCLDY    64  58  80 SW3       29.95S
WHITEVILLE     PTCLDY    64  59  83 CALM      29.98S

$$

AMZ130-135-150-152-154-156-158-170-250-252-270-ANZ085-086-088-633-658-670-270800-
MARINE OBSERVATIONS

STATION/POSITION TIME  TEMP    WIND        PRES    WAVE   SWELL
                       AIR SEA DIR/SP/G            HT/PER HT/PER
                 (UTC) (F)     (DEG/KT/KT) (MB)    (FT/S) (FT/S)
CHESAPEAKE LIGHT NOT AVBL
64 E VA BEACH    0650   65 62  250/  6/  6 1013.6    4/ 7   3/ 7
DUCK             0700   71 63  230/  6/  8 1012.7
2 E DUCK         0700      63                N/A     1/ 9
OREGON INLET     0700   71 69  230/  6/  7 1013.3
13E OREGON INLT  0648      67                N/A     2/ 8   2/ 8
HATTERAS CG      0700   71 73  240/  5/  7 1013.9
DIAMOND BUOY     0650   75 78  250/ 12/ 14 1014.2    5/ 6   3/ 6
CAPE LOOKOUT     0700   72     250/  6/  7 1014.4
BEAUFORT LAB     0700   72 71  240/  3/  5 1013.9
30 SE NEW RVR IN 0708   76 78  270/ 12/ 16 1014.9
30 SE NEW RVR IN 0643      78                N/A     5/ 6
27 SE WRIGHTSVLE 0708   74 76  240/ 12/ 17 1014.0
5 SE WRIGHTSVLE  0708   73 74  260/  8/ 12 1015.0
225 S CAPE HAT   0650   76 77  260/ 12/ 14 1016.5    4/ 6   3/ 6
41 SE CHARLESTON 0710   74 74  230/ 12/ 14 1015.9

$$




USA.gov is the U.S. government's official web portal to all federal, state and local government web resources and services.